SCP
0 -0 -0 -0 -0 0 0 0 0 -0 -0 -0 -0 -0 -0 -0 -0 -0 -0 -0 -0 -0 -0 -0 -0 0 0 0 0 0 -0 -0 -0 -0 -0 0 -0 0 0 -0 -0 -0 -0
-0 0 0 0 0 0 0 0 0 0 0 -0 0 -0 -0 -0 -0 -0 -0 0 0 -0 -0 -0 0 0 0 -0 -0 -0 0 -0 -0 -0 -0 0 -0 0 -0 0 -0 -0 -0
0 0 0 0 0 0 0 0 -0 0 0 -0 0 -0 -0 -0 -0 -0 -0 0 0 0 -0 -0 0 -0 -0 -0 -0 -0 -0 0 0 -0 -0 0 0 -0 -0 0 0 0 -0
0 0 0 0 0 0 -0 -0 0 0 0 -0 0 0 0 0 -0 -0 -0 -0 0 0 -0 -0 0 -0 -0 -0 -0 0 0 0 0 0 0 0 0 -0 -0 0 -0 0 -0
0 0 0 0 0 0 0 -0 0 0 0 0 0 0 0 0 0 -0 -0 -0 0 0 -0 0 0 -0 -0 -0 -0 0 0 0 0 0 0 -0 -0 -0 -0 -0 -0 -0 0
0 0 0 0 0 0 0 0 -0 -0 0 0 0 0 0 0 0 0 0 0 0 0 0 0 -0 -0 0 0 0 0 0 0 0 0 0 -0 0 -0 -0 -0 -0 -0 0
-0 0 0 -0 -0 0 0 0 0 0 0 -0 0 0 0 0 0 0 0 0 0 0 0 0 0 0 -0 0 0 0 0 0 0 0 0 0 0 -0 -0 -0 -0 -0 0
-0 -0 0 0 -0 -0 0 -0 -0 -0 -0 -0 -0 0 0 0 0 0 0 0 0 0 0 0 0 -0 0 0 0 0 0 0 0 0 0 0 -0 -0 -0 -0 -0 -0 -0
-1 -0 -0 -0 -0 -0 -0 -0 -0 -0 -0 -0 -0 -0 0 0 0 0 0 0 0 0 0 0 0 0 0 0 -0 0 0 0 0 0 0 0 -0 -0 -0 -0 -0 -0 -0
-0 -0 -0 -0 -0 -0 0 -0 -0 -0 -0 -0 -0 0 0 0 -0 0 0 0 0 0 0 0 0 -0 0 0 0 0 0 0 0 0 0 0 -0 -0 -0 -0 -0 -0 -0
0 -0 -0 -0 -0 -0 0 0 0 -0 -0 -0 -0 -0 0 0 0 0 0 0 0 0 0 0 0 -0 0 0 0 0 -0 0 0 0 0 -0 -0 -0 -0 -0 -0 -0 -0
0 0 0 -0 -0 -0 -0 -0 0 0 0 0 0 -0 0 0 0 0 -0 -0 -0 0 -0 0 0 -0 0 0 0 0 0 0 0 0 0 -1 -0 -0 -0 -0 -0 -0 -0
0 0 0 -0 0 -0 0 0 0 -0 -0 -0 -0 -0 -0 -0 0 0 0 0 0 0 0 0 0 0 0 0 0 0 0 0 0 0 0 -0 -0 -0 -0 -0 -0 -0 -0
0 0 0 0 0 0 0 0 0 0 0 -0 -0 0 -0 0 0 0 0 0 0 0 0 0 0 0 0 0 0 0 0 0 0 0 0 0 -0 -0 -0 -0 -0 -0 -0
-0 0 0 0 0 0 0 0 0 0 0 0 0 0 -0 0 -0 0 0 0 0 0 0 0 0 0 0 0 0 0 0 0 0 0 0 -0 -0 -0 -0 -0 -0 -0 -0
-1 -0 0 0 0 0 0 0 0 0 0 0 0 0 -0 -0 0 0 1 0 0 0 -0 0 0 0 0 0 0 -0 0 0 0 0 0 -0 -0 -0 -0 -0 -0 -0 -0
-0 -1 -0 -0 0 0 0 0 0 0 0 0 0 -0 -0 -0 0 0 0 0 0 0 -0 0 0 0 0 0 0 0 0 0 0 0 -0 -0 0 -0 -0 -0 -0 -0 -0
0 -0 -1 -0 0 0 0 0 -0 -0 0 0 -0 0 -0 0 -0 0 0 0 0 0 0 0 0 0 0 0 0 0 0 0 0 0 0 0 0 0 0 -0 -0 -0 -0
0 0 -0 -1 -0 0 0 0 -0 -0 0 0 0 0 -0 -0 -0 -0 0 -0 0 0 0 0 0 0 0 0 0 0 0 0 -0 -0 0 0 0 0 0 -0 -0 -0 -0
0 0 -0 0 -0 0 1 1 0 -0 -0 0 0 0 -0 -0 -0 -0 0 0 0 0 0 -0 0 0 0 0 0 0 0 0 0 0 0 0 0 0 0 0 0 0 -0
1 1 0 1 0 1 1 1 1 0 0 -0 0 0 0 -0 -0 0 0 0 0 0 0 0 0 0 -0 0 0 0 0 0 0 0 0 0 0 0 0 0 0 0 0
0 1 2 2 1 2 2 1 1 1 0 0 -0 0 0 0 0 0 0 0 0 0 0 0 0 0 0 0 0 0 0 0 0 0 0 -0 0 0 0 0 0 0 0
1 1 1 2 2 2 2 2 2 1 1 0 0 0 0 0 0 0 0 0 0 0 0 1 0 0 0 0 0 0 0 0 0 0 0 0 0 0 0 0 0 0 0
0 0 2 2 2 2 2 2 1 1 1 1 1 0 1 0 0 0 0 0 0 0 0 0 1 1 0 0 0 0 0 0 0 0 0 0 0 0 -0 0 0 0 1
0 1 1 2 2 2 2 1 2 1 1 1 1 1 1 1 1 0 1 0 0 0 0 0 0 0 0 0 0 0 0 0 -0 0 0 0 0 0 -0 0 0 0 0
0 0 1 1 1 1 1 1 1 1 1 1 1 1 1 2 3 1 1 1 0 0 1 0 0 0 0 0 0 0 0 0 0 0 0 0 0 0 0 0 0 0 0
Wind_Speed_500mb
55 49 47 49 46 43 42 42 46 50 47 42 51 56 56 68 64 61 57 49 43 40 38 38 35 34 32 26 24 26 28 28 29 37 43 45 44 42 35 30 35 39 39
61 55 50 52 47 45 42 44 45 45 44 46 56 57 67 73 64 61 53 45 42 42 42 39 36 32 32 32 32 31 31 32 35 38 43 40 41 39 34 31 36 35 34
67 63 55 48 43 41 41 43 43 45 49 58 59 62 67 66 56 53 48 40 35 36 39 36 33 30 32 37 36 41 42 45 43 35 28 29 39 38 28 26 31 34 34
67 59 54 47 42 39 40 41 43 46 52 60 58 56 61 58 50 45 41 36 30 27 28 28 27 27 33 38 46 46 43 45 41 33 23 23 30 27 23 26 31 31 33
61 57 53 48 43 42 41 42 46 46 50 54 51 57 58 55 46 42 36 31 26 21 22 21 24 24 33 39 43 39 34 29 28 25 15 13 25 28 27 29 29 30 28
54 54 53 49 43 43 44 44 44 45 49 48 45 50 52 48 42 37 30 24 18 14 18 18 19 24 32 41 42 35 31 35 30 25 17 17 20 24 24 25 23 25 25
49 53 52 48 44 41 42 43 43 43 43 42 44 46 45 42 36 30 24 18 15 17 18 17 16 18 25 36 42 31 28 23 25 25 11 11 10 16 19 19 18 20 22
53 54 53 48 44 41 39 40 41 41 39 39 38 38 39 38 31 24 21 18 18 15 14 13 11 15 18 36 42 34 28 26 17 23 7 7 5 9 15 17 19 19 20
49 52 55 53 47 42 38 36 37 40 38 37 36 34 34 32 27 25 19 15 16 12 10 11 9 13 20 33 43 38 30 27 25 18 5 5 4 5 11 16 18 18 16
54 50 54 55 50 45 41 38 36 35 35 36 37 35 32 29 25 20 17 16 12 9 6 11 12 15 22 31 42 35 33 27 25 13 12 5 8 2 8 13 14 15 14
54 56 53 55 53 48 43 39 36 37 35 35 34 34 32 28 23 19 16 15 14 11 9 9 10 17 29 31 36 36 37 27 20 15 22 4 6 2 6 10 13 14 15
53 59 56 55 55 52 48 44 41 38 38 35 33 29 26 21 16 12 15 14 15 14 16 12 11 20 28 24 27 31 21 7 11 15 20 6 8 3 5 7 12 14 14
44 47 54 56 55 53 51 47 43 38 36 34 32 29 25 23 17 19 17 14 16 18 19 16 15 22 28 25 27 20 11 5 9 28 19 5 8 8 4 4 8 11 13
44 34 42 50 53 51 48 47 43 42 39 35 32 28 29 27 25 17 19 20 19 17 18 18 14 20 28 24 13 6 7 13 5 21 13 8 6 5 9 4 4 9 11
46 40 34 35 46 52 47 39 35 36 34 31 33 34 37 34 26 18 19 19 21 18 17 21 27 22 26 26 18 16 22 9 15 12 14 7 6 6 6 6 6 7 11
47 45 43 36 34 52 48 44 31 31 33 28 34 29 30 38 33 28 29 28 26 20 17 20 27 24 21 25 24 31 29 23 6 16 13 14 16 13 9 10 8 10 9
61 48 48 42 38 41 44 47 34 34 30 30 32 27 25 34 40 34 33 37 31 29 21 19 30 30 27 28 33 33 38 36 16 15 22 16 10 5 10 12 9 10 12
62 60 50 49 45 43 44 47 46 42 37 33 37 32 33 27 41 42 32 38 38 34 28 28 36 43 38 38 41 42 41 45 38 26 20 22 18 17 10 13 15 15 14
54 58 56 52 47 47 44 54 48 45 45 44 38 37 37 35 34 44 45 29 35 37 32 29 31 46 38 33 42 31 45 46 47 42 33 31 34 27 22 21 16 14 16
44 48 51 49 47 46 46 52 51 57 49 40 48 44 42 43 40 38 37 38 35 47 40 28 32 38 29 34 34 31 26 28 40 49 40 37 39 32 28 26 27 25 19
37 45 43 50 51 50 51 53 66 67 62 53 53 48 46 50 51 46 37 45 44 42 42 32 30 39 37 31 41 28 35 40 37 33 46 49 41 43 35 35 35 35 29
22 35 46 53 52 60 59 59 55 70 70 66 59 59 55 52 54 53 47 47 57 50 49 43 43 48 44 42 42 39 35 39 43 44 40 40 47 46 45 47 41 37 39
21 30 46 54 46 56 56 58 54 60 60 63 67 67 62 59 59 59 55 50 61 57 56 56 52 55 58 54 54 48 25 29 35 42 50 49 47 46 44 43 46 50 45
17 19 35 52 47 50 51 57 63 62 73 65 65 65 72 61 67 69 69 64 67 70 66 69 64 64 60 62 54 59 56 22 23 24 36 62 50 46 51 51 44 35 31
21 18 12 20 39 44 52 52 59 62 71 78 71 68 73 79 70 73 77 71 58 80 72 69 69 74 76 71 60 57 57 61 59 51 39 36 56 56 48 46 48 55 61
15 17 12 15 25 32 45 53 59 66 69 70 82 77 70 78 88 85 85 80 76 71 85 75 71 69 77 76 69 66 60 60 58 57 52 41 37 52 49 46 48 49 52
Wind_Direction_500mb
159 145 143 136 133 129 125 124 127 135 132 128 132 135 136 132 129 130 130 126 117 109 108 108 115 113 105 106 111 108 106 112 116 120 116 108 104 104 101 107 114 113 109
156 151 143 133 132 129 129 131 130 134 129 129 132 133 137 133 129 128 124 121 114 108 106 108 105 106 105 105 107 106 108 109 112 115 113 111 111 111 107 111 107 108 113
149 150 142 129 129 131 131 130 129 132 131 130 131 134 139 139 131 127 125 119 113 108 104 100 96 100 100 104 106 109 110 106 100 93 103 108 114 115 107 116 108 110 107
145 150 144 135 132 134 133 132 129 130 133 134 136 138 143 143 138 130 130 121 114 108 102 99 91 95 103 106 110 110 110 107 102 81 83 102 118 116 111 118 114 111 113
147 148 143 137 133 132 134 135 133 133 135 139 138 143 145 145 141 138 131 127 117 108 99 94 93 94 108 115 116 116 114 103 96 109 131 89 117 115 118 114 112 115 119
150 149 143 140 137 133 134 137 138 136 138 141 140 146 149 149 148 141 135 129 120 110 97 96 98 104 116 125 124 123 117 105 110 129 119 100 120 121 117 118 125 118 122
147 152 150 146 141 137 137 140 139 139 140 145 147 150 156 154 151 148 145 134 127 116 104 101 108 111 125 134 135 131 117 105 123 149 110 82 113 126 117 118 121 121 124
149 151 152 152 147 143 140 142 145 143 145 150 151 150 158 164 160 154 143 136 137 129 115 110 128 128 133 145 141 136 123 116 124 152 126 32 110 143 134 127 127 121 119
156 155 155 156 155 151 148 149 151 152 154 154 154 156 159 162 165 161 154 152 148 135 128 130 130 141 138 146 147 137 129 114 129 152 102 12 62 163 148 140 139 134 126
162 165 162 161 162 161 158 158 159 159 164 162 163 166 166 164 171 178 187 178 168 163 177 149 140 145 145 144 149 148 138 127 130 189 200 359 2 236 169 153 155 153 148
166 168 170 166 167 167 167 166 168 168 171 172 174 176 178 181 183 194 199 200 201 195 208 167 154 144 145 137 150 155 150 144 156 201 191 304 3 260 189 167 167 167 162
166 172 174 172 171 171 172 174 176 175 176 179 181 181 176 180 182 209 211 210 212 208 205 178 165 150 150 145 154 157 157 151 233 183 204 335 5 6 215 194 175 177 181
173 176 179 176 176 175 176 176 177 179 180 184 188 185 174 173 180 188 198 208 225 214 199 190 183 159 150 145 149 149 102 56 195 172 194 360 23 24 315 226 196 188 191
179 187 187 184 178 178 176 182 182 182 185 185 186 177 184 189 202 203 200 229 229 217 207 194 190 176 175 154 138 243 212 306 206 196 179 127 57 9 341 326 233 199 204
184 190 191 191 188 182 181 183 191 196 191 192 196 187 194 204 182 205 219 229 227 210 205 197 175 163 183 185 195 241 248 210 221 225 188 225 341 311 280 290 277 230 212
191 197 198 199 190 193 192 200 197 198 189 183 192 195 212 221 204 205 216 225 217 202 200 201 209 195 196 212 214 213 214 208 262 233 227 302 308 253 246 240 247 249 228
195 199 205 204 198 201 204 202 203 198 203 204 202 204 212 220 225 221 223 218 216 217 201 214 209 208 199 198 220 208 212 206 214 250 259 283 262 270 279 247 248 231 235
189 196 207 209 210 208 213 210 204 206 215 231 214 217 218 217 226 236 220 213 208 211 210 220 217 213 217 214 226 225 218 214 199 221 253 250 252 254 275 289 259 233 224
193 194 200 213 220 220 220 216 209 216 213 227 219 226 230 228 227 234 235 222 220 222 225 228 228 221 221 223 226 224 218 217 220 219 232 242 255 254 247 249 260 259 256
194 199 207 212 222 225 223 227 218 205 209 223 233 234 235 239 232 231 240 235 211 219 221 223 236 218 219 229 223 228 221 235 231 219 227 232 246 252 241 241 262 249 258
205 201 211 212 222 228 224 222 224 216 213 214 221 236 236 243 239 233 236 229 214 214 222 220 217 222 220 223 227 231 244 244 246 243 233 237 237 240 245 250 260 259 261
236 236 225 222 230 231 234 239 241 225 219 222 219 228 240 239 237 236 238 228 218 221 222 225 231 220 221 228 229 230 242 239 246 240 237 237 232 239 252 248 262 268 261
255 257 242 232 247 235 237 238 239 233 229 225 224 225 235 243 245 247 247 244 225 221 218 225 227 221 223 223 229 231 233 237 242 244 250 250 244 235 245 243 260 262 261
354 275 266 241 241 244 250 242 237 235 230 227 230 231 233 238 241 244 248 248 231 226 222 227 228 228 224 231 235 231 231 239 222 245 256 248 238 235 239 238 250 256 250
6 353 308 253 247 253 248 247 248 242 239 234 229 238 233 238 240 242 246 247 241 229 230 230 232 232 233 236 233 230 232 240 248 261 277 251 235 235 238 238 243 251 250
3 358 329 280 262 264 247 254 251 247 245 241 234 233 239 238 239 240 246 251 249 241 232 233 232 234 235 236 234 231 238 236 239 250 251 244 235 236 242 246 243 241 244
Wind_Speed_850mb
55 49 47 49 46 43 42 42 46 50 47 42 51 56 56 68 64 61 57 49 43 40 38 38 35 34 32 26 24 26 28 28 29 37 43 45 44 42 35 30 35 39 39
61 55 50 52 47 45 42 44 45 45 44 46 56 57 67 73 64 61 53 45 42 42 42 39 36 32 32 32 32 31 31 32 35 38 43 40 41 39 34 31 36 35 34
67 63 55 48 43 41 41 43 43 45 49 58 59 62 67 66 56 53 48 40 35 36 39 36 33 30 32 37 36 41 42 45 43 35 28 29 39 38 28 26 31 34 34
67 59 54 47 42 39 40 41 43 46 52 60 58 56 61 58 50 45 41 36 30 27 28 28 27 27 33 38 46 46 43 45 41 33 23 23 30 27 23 26 31 31 33
61 57 53 48 43 42 41 42 46 46 50 54 51 57 58 55 46 42 36 31 26 21 22 21 24 24 33 39 43 39 34 29 28 25 15 13 25 28 27 29 29 30 28
54 54 53 49 43 43 44 44 44 45 49 48 45 50 52 48 42 37 30 24 18 14 18 18 19 24 32 41 42 35 31 35 30 25 17 17 20 24 24 25 23 25 25
49 53 52 48 44 41 42 43 43 43 43 42 44 46 45 42 36 30 24 18 15 17 18 17 16 18 25 36 42 31 28 23 25 25 11 11 10 16 19 19 18 20 22
53 54 53 48 44 41 39 40 41 41 39 39 38 38 39 38 31 24 21 18 18 15 14 13 11 15 18 36 42 34 28 26 17 23 7 7 5 9 15 17 19 19 20
49 52 55 53 47 42 38 36 37 40 38 37 36 34 34 32 27 25 19 15 16 12 10 11 9 13 20 33 43 38 30 27 25 18 5 5 4 5 11 16 18 18 16
54 50 54 55 50 45 41 38 36 35 35 36 37 35 32 29 25 20 17 16 12 9 6 11 12 15 22 31 42 35 33 27 25 13 12 5 8 2 8 13 14 15 14
54 56 53 55 53 48 43 39 36 37 35 35 34 34 32 28 23 19 16 15 14 11 9 9 10 17 29 31 36 36 37 27 20 15 22 4 6 2 6 10 13 14 15
53 59 56 55 55 52 48 44 41 38 38 35 33 29 26 21 16 12 15 14 15 14 16 12 11 20 28 24 27 31 21 7 11 15 20 6 8 3 5 7 12 14 14
44 47 54 56 55 53 51 47 43 38 36 34 32 29 25 23 17 19 17 14 16 18 19 16 15 22 28 25 27 20 11 5 9 28 19 5 8 8 4 4 8 11 13
44 34 42 50 53 51 48 47 43 42 39 35 32 28 29 27 25 17 19 20 19 17 18 18 14 20 28 24 13 6 7 13 5 21 13 8 6 5 9 4 4 9 11
46 40 34 35 46 52 47 39 35 36 34 31 33 34 37 34 26 18 19 19 21 18 17 21 27 22 26 26 18 16 22 9 15 12 14 7 6 6 6 6 6 7 11
47 45 43 36 34 52 48 44 31 31 33 28 34 29 30 38 33 28 29 28 26 20 17 20 27 24 21 25 24 31 29 23 6 16 13 14 16 13 9 10 8 10 9
61 48 48 42 38 41 44 47 34 34 30 30 32 27 25 34 40 34 33 37 31 29 21 19 30 30 27 28 33 33 38 36 16 15 22 16 10 5 10 12 9 10 12
62 60 50 49 45 43 44 47 46 42 37 33 37 32 33 27 41 42 32 38 38 34 28 28 36 43 38 38 41 42 41 45 38 26 20 22 18 17 10 13 15 15 14
54 58 56 52 47 47 44 54 48 45 45 44 38 37 37 35 34 44 45 29 35 37 32 29 31 46 38 33 42 31 45 46 47 42 33 31 34 27 22 21 16 14 16
44 48 51 49 47 46 46 52 51 57 49 40 48 44 42 43 40 38 37 38 35 47 40 28 32 38 29 34 34 31 26 28 40 49 40 37 39 32 28 26 27 25 19
37 45 43 50 51 50 51 53 66 67 62 53 53 48 46 50 51 46 37 45 44 42 42 32 30 39 37 31 41 28 35 40 37 33 46 49 41 43 35 35 35 35 29
22 35 46 53 52 60 59 59 55 70 70 66 59 59 55 52 54 53 47 47 57 50 49 43 43 48 44 42 42 39 35 39 43 44 40 40 47 46 45 47 41 37 39
21 30 46 54 46 56 56 58 54 60 60 63 67 67 62 59 59 59 55 50 61 57 56 56 52 55 58 54 54 48 25 29 35 42 50 49 47 46 44 43 46 50 45
17 19 35 52 47 50 51 57 63 62 73 65 65 65 72 61 67 69 69 64 67 70 66 69 64 64 60 62 54 59 56 22 23 24 36 62 50 46 51 51 44 35 31
21 18 12 20 39 44 52 52 59 62 71 78 71 68 73 79 70 73 77 71 58 80 72 69 69 74 76 71 60 57 57 61 59 51 39 36 56 56 48 46 48 55 61
15 17 12 15 25 32 45 53 59 66 69 70 82 77 70 78 88 85 85 80 76 71 85 75 71 69 77 76 69 66 60 60 58 57 52 41 37 52 49 46 48 49 52
Wind_Direction_850mb
159 145 143 136 133 129 125 124 127 135 132 128 132 135 136 132 129 130 130 126 117 109 108 108 115 113 105 106 111 108 106 112 116 120 116 108 104 104 101 107 114 113 109
156 151 143 133 132 129 129 131 130 134 129 129 132 133 137 133 129 128 124 121 114 108 106 108 105 106 105 105 107 106 108 109 112 115 113 111 111 111 107 111 107 108 113
149 150 142 129 129 131 131 130 129 132 131 130 131 134 139 139 131 127 125 119 113 108 104 100 96 100 100 104 106 109 110 106 100 93 103 108 114 115 107 116 108 110 107
145 150 144 135 132 134 133 132 129 130 133 134 136 138 143 143 138 130 130 121 114 108 102 99 91 95 103 106 110 110 110 107 102 81 83 102 118 116 111 118 114 111 113
147 148 143 137 133 132 134 135 133 133 135 139 138 143 145 145 141 138 131 127 117 108 99 94 93 94 108 115 116 116 114 103 96 109 131 89 117 115 118 114 112 115 119
150 149 143 140 137 133 134 137 138 136 138 141 140 146 149 149 148 141 135 129 120 110 97 96 98 104 116 125 124 123 117 105 110 129 119 100 120 121 117 118 125 118 122
147 152 150 146 141 137 137 140 139 139 140 145 147 150 156 154 151 148 145 134 127 116 104 101 108 111 125 134 135 131 117 105 123 149 110 82 113 126 117 118 121 121 124
149 151 152 152 147 143 140 142 145 143 145 150 151 150 158 164 160 154 143 136 137 129 115 110 128 128 133 145 141 136 123 116 124 152 126 32 110 143 134 127 127 121 119
156 155 155 156 155 151 148 149 151 152 154 154 154 156 159 162 165 161 154 152 148 135 128 130 130 141 138 146 147 137 129 114 129 152 102 12 62 163 148 140 139 134 126
162 165 162 161 162 161 158 158 159 159 164 162 163 166 166 164 171 178 187 178 168 163 177 149 140 145 145 144 149 148 138 127 130 189 200 359 2 236 169 153 155 153 148
166 168 170 166 167 167 167 166 168 168 171 172 174 176 178 181 183 194 199 200 201 195 208 167 154 144 145 137 150 155 150 144 156 201 191 304 3 260 189 167 167 167 162
166 172 174 172 171 171 172 174 176 175 176 179 181 181 176 180 182 209 211 210 212 208 205 178 165 150 150 145 154 157 157 151 233 183 204 335 5 6 215 194 175 177 181
173 176 179 176 176 175 176 176 177 179 180 184 188 185 174 173 180 188 198 208 225 214 199 190 183 159 150 145 149 149 102 56 195 172 194 360 23 24 315 226 196 188 191
179 187 187 184 178 178 176 182 182 182 185 185 186 177 184 189 202 203 200 229 229 217 207 194 190 176 175 154 138 243 212 306 206 196 179 127 57 9 341 326 233 199 204
184 190 191 191 188 182 181 183 191 196 191 192 196 187 194 204 182 205 219 229 227 210 205 197 175 163 183 185 195 241 248 210 221 225 188 225 341 311 280 290 277 230 212
191 197 198 199 190 193 192 200 197 198 189 183 192 195 212 221 204 205 216 225 217 202 200 201 209 195 196 212 214 213 214 208 262 233 227 302 308 253 246 240 247 249 228
195 199 205 204 198 201 204 202 203 198 203 204 202 204 212 220 225 221 223 218 216 217 201 214 209 208 199 198 220 208 212 206 214 250 259 283 262 270 279 247 248 231 235
189 196 207 209 210 208 213 210 204 206 215 231 214 217 218 217 226 236 220 213 208 211 210 220 217 213 217 214 226 225 218 214 199 221 253 250 252 254 275 289 259 233 224
193 194 200 213 220 220 220 216 209 216 213 227 219 226 230 228 227 234 235 222 220 222 225 228 228 221 221 223 226 224 218 217 220 219 232 242 255 254 247 249 260 259 256
194 199 207 212 222 225 223 227 218 205 209 223 233 234 235 239 232 231 240 235 211 219 221 223 236 218 219 229 223 228 221 235 231 219 227 232 246 252 241 241 262 249 258
205 201 211 212 222 228 224 222 224 216 213 214 221 236 236 243 239 233 236 229 214 214 222 220 217 222 220 223 227 231 244 244 246 243 233 237 237 240 245 250 260 259 261
236 236 225 222 230 231 234 239 241 225 219 222 219 228 240 239 237 236 238 228 218 221 222 225 231 220 221 228 229 230 242 239 246 240 237 237 232 239 252 248 262 268 261
255 257 242 232 247 235 237 238 239 233 229 225 224 225 235 243 245 247 247 244 225 221 218 225 227 221 223 223 229 231 233 237 242 244 250 250 244 235 245 243 260 262 261
354 275 266 241 241 244 250 242 237 235 230 227 230 231 233 238 241 244 248 248 231 226 222 227 228 228 224 231 235 231 231 239 222 245 256 248 238 235 239 238 250 256 250
6 353 308 253 247 253 248 247 248 242 239 234 229 238 233 238 240 242 246 247 241 229 230 230 232 232 233 236 233 230 232 240 248 261 277 251 235 235 238 238 243 251 250
3 358 329 280 262 264 247 254 251 247 245 241 234 233 239 238 239 240 246 251 249 241 232 233 232 234 235 236 234 231 238 236 239 250 251 244 235 236 242 246 243 241 244